Wind_Speed
19 19 22 23 22 21 21 18 16 16 18 19 20 20 19 19 19 18 20 21 26 27
19 22 25 27 25 24 24 22 15 15 16 17 18 19 18 19 20 20 21 23 24 27
17 16 20 24 29 29 27 24 20 18 18 17 16 15 16 18 19 19 21 22 22 22
11 11 12 17 21 24 28 24 22 21 20 19 17 13 14 18 21 18 19 21 18 17
11 12 13 15 15 17 23 25 22 21 22 18 14 12 14 17 19 13 15 19 20 13
18 18 19 20 19 20 21 22 21 21 23 21 15 14 19 19 18 15 18 18 18 13
18 21 23 25 26 26 26 23 20 21 21 21 17 19 22 21 23 17 16 16 14 17
20 21 20 21 23 26 27 26 24 24 24 24 21 23 24 23 24 18 16 14 13 15
22 24 24 20 19 22 28 29 26 25 27 24 24 24 24 23 25 18 15 15 12 13
23 25 23 22 21 19 20 20 24 26 26 24 24 24 23 24 24 19 14 14 14 9
23 23 19 18 17 14 13 16 19 22 22 21 22 23 23 25 24 19 14 14 15 14
21 21 21 21 18 13 10 13 15 17 17 19 21 23 21 26 26 22 18 17 17 16
19 20 22 19 16 9 10 13 16 18 17 19 21 21 21 27 29 24 22 19 19 20
22 17 13 10 9 8 9 11 12 13 16 18 19 20 17 26 29 27 23 22 21 22
Wind_Direction
256 260 264 270 266 264 265 271 276 263 258 249 252 259 262 264 264 261 259 263 257 240
269 263 266 272 271 266 267 266 262 260 260 255 250 252 253 255 259 258 261 262 262 264
262 266 275 276 275 268 265 265 259 254 254 251 251 252 254 256 257 259 265 264 260 253
252 262 271 278 281 276 267 272 264 256 251 244 248 254 261 264 265 260 264 250 241 254
264 268 269 277 282 279 268 267 267 256 246 248 253 259 261 270 265 254 263 255 251 243
281 270 262 268 270 267 263 263 268 246 241 244 249 256 263 262 249 251 274 260 250 263
305 298 291 283 272 264 258 255 255 245 245 252 260 255 254 248 238 249 252 249 245 239
319 314 301 289 281 270 261 256 251 242 241 246 248 245 243 243 234 236 235 242 236 238
316 306 303 299 295 280 266 257 250 244 242 243 244 245 245 242 232 230 225 226 229 231
312 309 299 290 290 278 269 256 247 245 242 239 244 248 243 235 232 222 216 211 211 202
308 300 290 294 295 287 266 248 249 247 248 245 251 250 243 231 224 219 213 221 207 213
308 293 297 291 281 274 265 263 258 254 257 255 259 258 247 222 216 215 209 214 205 207
298 290 291 283 264 251 246 257 261 261 260 265 264 262 250 215 206 206 203 208 212 211
296 288 291 273 256 254 270 267 263 271 269 263 264 257 241 212 203 201 195 198 193 191
Height
759 760 760 759 759 759 759 757 759 760 761 761 762 763 763 764 764 764 764 764 765 760
755 756 756 756 756 754 754 754 754 755 756 758 757 757 757 758 758 759 759 758 759 759
750 751 753 753 751 750 748 749 750 751 750 752 753 752 753 754 753 754 755 755 755 753
745 747 747 747 746 745 745 746 745 746 746 746 748 748 748 749 750 750 749 750 750 749
742 742 742 742 740 739 738 738 738 739 740 741 741 743 744 745 746 746 746 747 747 747
739 739 737 736 735 734 733 732 733 733 734 735 734 737 741 742 742 743 744 744 745 745
736 735 733 730 729 728 727 726 726 727 729 731 731 734 736 737 737 738 740 741 741 742
730 728 726 723 721 721 721 720 718 721 722 723 726 727 729 731 733 734 736 737 737 739
726 725 721 718 715 715 714 713 712 714 717 719 719 720 723 726 728 730 732 734 736 738
721 719 716 713 710 709 708 708 707 709 712 712 714 717 719 721 724 727 729 732 735 737
717 715 712 708 705 704 705 704 703 706 708 710 710 712 716 717 720 724 726 730 733 736
714 712 709 706 702 701 701 702 701 703 704 705 705 708 711 714 717 721 723 727 731 735
711 708 705 701 700 698 699 698 698 697 698 700 701 703 706 709 713 717 721 725 728 733
705 703 701 699 698 696 696 696 695 694 695 696 697 699 702 705 708 712 717 721 725 730